CZ-4 DEB, 26194

Orbit data source: Space-Track

CZ-4 DEB, 26194 is space debris in SSO originally from a launch on Thu, 14 Oct 1999 UTC launched from the Taiyaun Space Center, China (TSC). Debris objects in space refer to the collection of defunct objects orbiting the Earth. Examples of debris include non-operational satellites, rocket bodies, and fragments generated from explosions, collisions, or faulty payload assembly.

Loading next visibility...
Identifier
26194, 1999-057CG
Orbit
SSO
Country
Flag of CNCN / PRC
Related business
Manufacturer
Unknown
Mission
Spacecraft
Bus & Motor
Unknown
Mass
Unknown
Launch date (UTC)
1999-10-14 (26 years ago)
Launch vehicle
Unknown
Launch site
Taiyaun Space Center, China (TSC)
Object type
Payload
Rocket body
Debris
Shape & HBR
Unknown shape, 0.2 m
Radar Cross Section
Small (<0.1 m²)

Expand to show TLE details & history
Last TLE update: 7 hours ago

TLE from 7 hours ago
0 CZ-4 DEB
1 26194U 99057CG  25293.15131654  .00006925  00000-0  11406-2 0  9995
2 26194  98.1491 247.1435 0044229  18.1573 108.4816 14.70177888609620
Epoch: 2025-10-20T03:37Z
TLE epoch observation values (Epoch: 2025-10-20T03:37:53.749Z)
Latitude
52.22601°
Longitude
-5.59795°
Altitude
678.975 km
Speed
7.517 km/s
True Right ascension
05h 10m 56s
True Declination
52° 03' 27"
Sunlit
Object was in full shadow at epoch
Visualization orbit readout
Latitude
Unknown
Longitude
Unknown
Altitude
Unknown
Speed
Unknown
Apparent Right ascension
Unknown
Apparent Declination
Unknown
Sunlit
N/A
Visualization observer readout
Local Sidereal Time
05:16:56
Azimuth
Unknown
Elevation
Unknown
Doppler factor
Unknown
Orbital elements
Apogee altitude
688.684 km
Perigee altitude
626.447 km
Semi-major axis
7,035.702 km
Eccentricity
0.00442
Inclination
98.1491°
RAAN
247.1435°
Arg. of periapsis
18.1573°
True anomaly
108.96144°
Mean anomaly
108.4816°
Eccentric anomaly
108.72161°
Mean motion
3.67775 °/min
Orbital period
97.89 mins
BSTAR
0.0011406
Loading maneuver chart data...
Computing Atmospheric mass density...

Documentation

Showing up to 5 results
|